User: anonymous   Login
Location: Izdebno
(52.6670°N, 16.2170°E)
Time: 11:36:24
(UTC+01:00)
Language:

A-11 Canister half - Orbit

View from above orbital plane
View from above orbital plane
View from above satellite
View from above satellite

Ground track
Ground track

The orbit data is extracted from the following two-line orbital elements,

1 00053U 60009E   24064.63878489  .00000027  00000-0  11099-2 0  9993
2 00053  47.2784  36.5170 0097199 129.3515 231.5935 12.17323334833769
Epoch (UTC): 04 March 2024 15:19:51
Eccentricity: 0.0097199
inclination: 47.2784°
perigee height: 1526 km
apogee height: 1682 km
right ascension of ascending node: 36.5170°
argument of perigee: 129.3515°
revolutions per day: 12.17323334
mean anomaly at epoch: 231.5935°
orbit number at epoch: 83376

The dashed part of the orbit path shows where the satellite is in the earth's shadow,  

DLR